Theta_e
323 324 325 327 329 329 330 331 328 329 327 331 331 331 331 332 333 333 333 332 331 328 325 327 328 328 328 328 328 328 328 328 328 327 327 326 326 326 323 325 324 322 312
322 323 324 327 328 329 330 333 332 330 326 327 329 331 331 332 332 333 333 332 331 329 328 328 327 325 326 329 329 328 329 327 326 326 326 326 323 321 318 323 324 320 320
320 323 323 326 327 328 328 328 333 333 330 327 328 328 331 332 333 333 333 332 331 332 329 328 328 326 327 328 327 326 328 327 326 324 325 324 322 324 324 326 326 325 323
319 321 324 324 326 328 326 325 329 331 332 332 328 329 328 330 333 333 333 334 332 332 330 329 329 327 328 329 329 326 325 326 327 324 322 322 323 325 325 324 323 322 321
318 319 324 323 324 329 326 326 324 325 327 329 331 330 327 327 332 333 333 333 333 332 331 331 331 331 330 330 324 322 322 323 322 322 321 321 321 323 323 323 323 322 321
318 318 321 322 322 325 326 326 325 323 322 323 323 323 322 325 324 325 327 329 330 329 326 328 327 329 325 318 323 321 322 323 323 321 322 322 324 323 323 323 322 322 322
319 319 318 321 322 323 324 323 323 323 323 323 322 323 323 324 325 326 325 326 326 326 325 323 320 319 319 320 321 323 322 323 325 325 328 324 325 325 324 325 324 324 323
320 320 317 319 321 322 322 323 324 325 322 322 321 320 321 316 320 324 326 326 326 326 324 322 321 324 323 321 320 321 321 319 321 322 326 326 325 324 326 326 326 325 324
320 320 318 317 320 322 323 324 326 326 326 325 323 322 320 315 313 315 320 324 324 324 323 323 324 323 321 320 320 320 320 320 316 314 315 318 321 322 322 322 321 321 321
321 321 319 317 318 320 322 324 325 326 326 324 324 322 321 320 310 310 316 317 320 318 318 317 316 315 308 315 320 321 321 322 315 311 311 311 310 310 310 310 313 313 314
320 320 320 318 318 320 322 324 324 323 323 323 322 323 321 322 310 307 311 314 315 313 312 311 310 307 305 315 320 321 321 320 318 315 316 317 316 315 315 314 311 310 309
321 320 320 320 318 320 322 323 323 322 322 322 321 321 321 320 320 306 309 312 312 313 314 313 310 305 305 306 308 313 313 311 311 313 315 316 316 316 316 315 313 312 312
321 320 321 321 319 320 324 325 323 322 321 321 320 320 318 319 319 311 306 312 311 319 318 317 314 305 304 304 305 306 306 308 311 314 317 319 319 318 315 315 315 312 310
322 322 322 322 319 321 323 324 322 321 320 319 318 318 317 317 318 314 309 310 313 318 316 315 314 309 306 309 310 309 308 310 313 317 319 319 319 318 317 313 311 310 308
324 323 323 323 321 321 322 321 320 320 319 319 318 318 319 318 318 317 313 312 313 313 315 316 315 315 314 314 315 316 317 317 318 322 321 318 312 310 310 307 306 306 307
327 325 323 323 322 320 321 321 319 320 319 319 319 319 319 319 318 317 315 314 313 313 313 318 319 320 320 320 319 320 322 321 319 317 313 307 305 304 305 306 306 306 306
328 326 324 323 323 321 319 319 320 318 318 317 317 317 317 317 316 315 314 314 314 314 315 318 319 321 321 320 323 324 318 312 308 307 305 305 305 305 305 304 305 305 305
328 326 325 324 323 322 321 319 319 319 318 318 316 315 315 316 315 314 313 311 310 310 315 318 321 320 321 324 322 313 309 307 305 305 305 306 305 305 304 304 303 303 302
330 326 325 325 324 323 322 321 320 319 318 317 317 315 314 313 312 312 311 313 315 317 317 320 321 323 320 313 311 308 305 305 306 303 303 304 303 302 302 302 302 302 302
329 329 327 325 325 323 324 323 322 321 321 319 318 317 311 309 309 309 309 312 317 322 321 323 320 316 312 309 308 308 305 304 304 302 302 301 301 302 302 302 302 301 301
329 329 328 326 325 324 324 324 324 323 322 321 321 319 313 312 314 314 314 320 324 324 321 315 311 307 309 308 307 304 303 302 301 301 301 301 302 301 301 301 300 300 299
329 329 328 327 327 326 325 325 325 324 324 323 322 318 317 321 322 324 324 324 320 313 311 311 310 309 304 303 302 301 300 300 300 300 301 300 300 300 299 300 299 298 298
329 329 329 328 328 327 326 325 325 326 325 325 322 319 319 325 324 319 313 311 310 310 309 307 304 302 301 300 299 299 299 299 299 299 299 299 299 299 299 299 298 297 297
329 329 329 328 327 327 326 327 325 325 325 326 324 323 323 319 314 311 311 311 309 306 303 301 300 298 296 295 296 298 299 298 298 298 299 299 298 298 298 297 296 296 296
329 329 328 328 327 326 326 326 326 325 326 323 322 319 316 314 314 312 308 305 302 299 298 297 296 295 295 297 296 294 293 292 291 294 298 298 297 297 296 295 294 294 294
327 328 328 328 327 326 326 326 326 325 321 321 319 316 314 313 309 304 302 300 298 296 295 295 295 297 297 296 294 293 292 290 290 293 296 297 295 295 293 291 292 291 291
Wind_Speed
7 6 6 8 9 8 10 12 12 11 11 12 10 12 15 17 17 20 20 20 18 17 19 11 17 21 23 31 26 24 19 14 9 13 14 16 15 12 13 10 10 9 13
9 8 8 8 9 10 12 14 14 14 13 12 11 13 14 14 17 19 19 19 22 22 20 18 19 21 25 29 27 20 15 17 19 14 14 15 14 11 12 9 9 9 14
11 10 9 9 9 11 13 14 14 14 13 16 15 17 14 13 14 14 20 21 23 22 24 24 24 27 28 29 25 17 11 10 16 16 14 14 13 11 10 8 8 9 5
12 12 11 11 11 12 13 14 15 14 16 13 15 14 13 13 16 17 19 20 22 23 25 26 25 29 25 20 22 20 15 14 14 15 15 14 11 10 10 11 10 11 12
13 14 13 13 12 12 12 13 15 14 15 15 12 10 14 12 15 17 17 19 22 22 21 20 18 19 19 16 17 15 14 14 15 14 14 13 12 12 14 13 14 13 15
14 15 15 15 14 13 12 13 13 14 14 14 15 15 15 16 17 18 18 19 19 18 16 18 19 20 17 14 18 16 14 13 12 12 12 11 12 12 11 12 12 13 14
16 16 18 17 17 15 14 14 13 12 11 11 12 14 14 16 17 17 17 16 17 17 17 18 17 16 14 14 15 15 12 11 7 3 2 6 7 10 11 13 15 14 16
18 17 18 19 18 18 16 15 14 12 12 12 11 12 11 13 14 14 16 15 15 13 13 12 13 12 11 11 12 11 9 9 10 7 5 6 6 8 10 13 13 15 19
20 19 19 20 20 19 18 16 15 15 14 12 10 10 9 9 10 12 11 13 12 11 11 10 11 11 14 13 12 12 11 9 10 10 10 11 12 11 13 9 13 16 18
22 21 20 20 21 21 19 18 16 15 14 14 12 10 8 8 11 12 10 9 11 10 9 11 13 11 15 16 11 11 9 8 7 7 10 11 13 16 18 19 16 18 18
23 22 21 20 21 21 19 18 17 16 15 14 13 12 11 10 12 13 14 5 13 12 12 11 12 14 18 16 10 6 5 5 5 7 7 10 10 10 10 11 11 10 17
24 23 22 21 21 21 20 19 18 17 15 14 13 13 13 12 11 16 18 9 13 11 10 10 10 13 13 11 9 7 8 9 6 9 11 12 12 12 11 4 5 9 14
26 25 24 22 21 22 22 21 20 19 18 18 17 16 16 16 14 17 20 12 15 5 9 11 9 11 10 10 12 11 11 7 7 9 10 11 11 7 12 12 10 13 19
27 25 24 24 22 22 21 21 21 21 20 19 19 18 18 19 18 18 21 21 20 10 7 9 10 10 11 10 11 13 13 8 7 9 11 10 9 10 9 11 16 19 20
27 26 25 25 25 23 23 23 23 22 22 21 20 20 20 20 22 21 22 20 18 16 11 9 8 9 10 10 9 9 7 7 5 2 6 6 10 13 11 10 12 15 16
28 29 29 28 27 24 23 22 23 19 24 20 18 19 21 21 23 24 21 19 17 15 15 12 13 13 13 12 12 12 7 4 4 3 3 4 5 7 9 15 14 15 17
30 29 29 28 28 27 26 24 23 24 22 26 19 14 10 18 19 28 25 21 19 17 15 14 15 14 10 7 5 5 14 9 6 5 7 8 10 12 14 15 14 14 18
32 30 30 31 28 29 27 27 25 25 24 22 28 22 15 18 22 23 23 20 18 20 15 15 10 8 8 8 10 12 12 11 9 8 4 1 5 8 12 13 15 18 18
32 32 33 29 31 28 28 28 27 26 26 25 23 25 26 21 19 18 18 17 17 17 14 13 11 11 10 11 12 13 14 11 6 4 6 6 8 10 11 13 14 15 18
31 33 30 30 28 29 29 29 27 26 24 27 28 24 22 24 19 19 21 18 17 16 14 14 12 14 14 15 14 11 8 10 7 5 7 8 8 8 10 12 14 16 17
29 30 34 31 30 28 28 26 26 24 23 24 26 30 31 29 23 22 22 21 18 16 17 18 19 20 17 17 16 13 10 9 5 6 6 5 6 8 10 11 13 14 16
25 26 31 34 30 28 28 26 22 23 21 22 12 32 34 24 22 21 19 18 18 21 22 22 22 20 19 19 15 17 8 6 5 4 5 5 6 8 10 11 13 15 16
22 23 25 29 30 28 24 27 25 22 19 20 24 26 27 20 21 21 21 20 22 22 22 21 22 21 17 21 17 13 11 7 5 4 4 4 6 7 10 10 14 17 19
20 19 20 23 26 26 26 22 25 21 18 25 26 25 23 24 25 25 24 24 24 24 22 20 18 20 19 14 13 10 9 9 5 3 3 4 6 8 11 12 16 17 18
19 19 19 19 18 21 22 20 17 17 21 26 25 26 29 29 29 29 28 26 25 27 29 27 21 18 19 15 12 13 13 10 7 6 3 4 7 10 12 14 16 17 18
14 12 14 15 17 20 21 23 22 21 24 25 27 30 33 32 31 31 30 30 30 31 29 26 21 17 16 17 16 14 10 7 6 6 5 6 9 11 12 14 16 17 19
Wind_Direction
146 132 122 100 98 94 82 75 89 83 72 104 112 104 104 116 129 124 126 133 132 142 143 151 149 162 162 161 148 150 151 193 146 167 154 172 173 181 181 181 194 206 220
158 141 129 118 108 101 94 93 96 97 88 105 112 111 114 113 124 131 133 141 141 137 140 155 156 160 164 166 163 169 191 176 155 160 157 167 171 174 176 185 192 209 213
163 148 137 130 115 112 98 102 109 113 107 103 102 110 112 120 129 132 136 143 147 147 156 161 156 160 160 171 182 196 174 171 154 167 164 170 168 171 173 200 217 246 218
168 157 146 141 127 128 120 111 111 114 121 113 96 96 97 101 119 125 123 128 137 142 145 153 159 164 176 181 180 193 179 162 162 155 168 163 170 178 197 207 223 230 233
171 159 157 151 141 138 132 124 115 117 117 120 124 106 105 101 118 117 120 128 131 136 139 150 159 165 162 170 154 169 158 158 166 162 168 169 189 181 214 223 234 233 230
173 163 167 161 155 147 142 134 130 127 127 123 123 106 99 110 113 112 118 121 124 120 118 126 129 146 149 125 139 139 165 152 171 167 167 190 188 203 217 230 239 241 246
179 166 171 170 164 160 155 147 139 135 138 132 123 114 104 115 116 115 114 115 113 116 121 129 129 133 133 134 144 147 155 163 151 176 55 178 186 217 233 224 242 252 251
185 174 172 177 171 169 168 158 152 151 147 145 140 136 125 125 129 127 127 127 129 127 130 130 132 135 143 146 148 150 162 180 192 198 213 229 240 235 238 245 258 261 269
187 181 178 178 176 176 175 168 167 166 165 164 158 154 151 156 160 155 149 152 143 143 146 151 156 161 169 165 165 164 166 179 196 210 218 230 235 240 241 250 257 255 263
189 185 182 180 179 180 179 174 176 177 176 178 172 173 173 173 181 176 162 167 155 156 159 167 161 170 164 161 157 161 167 181 192 226 242 257 266 268 264 258 263 278 288
189 186 182 181 180 181 176 176 181 188 182 194 181 180 182 181 192 185 184 173 168 169 166 163 174 168 166 166 145 153 185 173 240 256 269 269 265 262 265 277 281 275 283
190 186 183 179 182 179 178 180 186 191 186 193 187 189 193 192 197 188 179 178 161 167 161 161 173 172 175 178 180 204 219 231 269 273 275 277 280 284 291 303 273 281 281
191 186 182 180 188 178 180 182 186 188 193 193 194 197 192 190 196 199 187 181 166 150 154 165 180 190 197 205 220 239 243 257 275 281 285 293 304 340 330 313 306 310 304
192 185 181 181 187 179 186 187 192 189 197 195 193 194 192 184 186 189 192 194 186 181 160 166 190 184 195 209 233 248 255 255 280 304 316 319 325 331 355 350 319 310 315
188 186 186 188 188 183 193 191 197 194 197 194 195 193 190 188 192 190 188 191 198 200 195 195 200 210 216 225 227 224 218 205 228 336 14 359 9 351 332 329 334 313 295
187 186 190 192 187 194 198 197 204 204 202 209 204 203 197 203 194 191 192 191 198 198 195 205 213 220 222 225 219 208 167 143 77 33 61 27 20 6 334 332 337 320 319
192 191 194 199 191 199 197 202 196 215 200 210 222 219 180 196 183 184 188 188 190 193 205 216 228 231 220 219 195 125 117 99 116 106 70 35 360 349 337 333 326 329 333
191 195 199 198 201 200 201 203 204 199 203 207 218 222 195 179 170 177 180 184 191 202 218 240 216 195 195 170 141 115 116 118 110 109 117 331 334 344 334 338 345 349 341
191 198 202 203 211 201 206 206 209 207 201 205 196 211 219 210 202 196 200 197 208 211 213 203 188 163 134 118 122 128 136 125 102 41 47 24 7 359 355 350 347 343 342
199 200 203 213 202 215 206 207 210 211 207 194 191 196 191 194 187 193 201 215 221 214 183 153 140 135 133 133 127 110 102 77 70 62 35 32 11 6 356 353 350 348 346
205 200 211 208 223 205 217 213 208 209 213 215 182 181 187 183 191 193 193 196 186 161 150 145 139 132 133 131 124 109 118 96 77 46 58 27 9 6 359 351 346 338 337
206 210 199 216 216 222 208 212 214 201 203 215 151 166 172 178 179 175 174 157 151 142 143 139 135 134 130 123 124 121 106 107 95 72 51 26 13 8 349 342 341 340 337
206 208 211 201 217 221 217 208 209 213 193 151 140 156 173 171 158 148 140 135 137 138 136 133 131 129 130 138 124 120 126 122 101 76 59 31 7 360 337 338 341 342 340
212 209 211 201 207 213 220 201 193 204 213 151 153 165 161 145 138 140 144 143 138 131 126 124 122 123 119 116 118 116 123 116 97 66 28 13 360 341 333 342 343 337 332
239 202 208 203 201 208 206 205 195 195 155 148 158 146 144 145 141 140 140 139 132 128 129 127 126 132 134 130 145 139 126 114 100 99 43 356 346 343 350 348 337 336 339
235 186 198 194 208 197 192 188 181 161 156 154 143 137 142 146 146 145 145 138 132 133 133 131 137 136 135 137 145 134 126 102 76 80 78 3 356 353 351 342 346 349 345